Flag for Germany Weather past 2 weeks in Schleswig, Schleswig-Holstein, Germany

Now
29 °F

Clear.


Feels Like: 25 °F
Forecast: 29 / 37 °F
Wind: 3 mph from Northeast

Location: Schleswig

Current Time: Dec 28, 2014 at 12:04:51 AM

Latest Report: Dec 27, 2014 at 11:00 PM


Visibility: 6 mi

Pressure: 30.00 "Hg

Humidity: 94%

Dew point: 27 °F

Location of SchleswigLocation

Historic Weather in Schleswig — Graph

°F

Schleswig temperature yesterday

Maximum temperature yesterday: 32 °F (at 2:00 PM)
Minimum temperature yesterday: 26 °F (at 7:00 AM)
Average temperature yesterday: 29 °F

Past Weeks' High & Low Weather Summary

 TemperatureHumidityPressure
High51 °F (Dec 18, 9:00 PM)100% (Dec 14, 7:00 AM)30.35 "Hg (Dec 14, 7:00 AM)
Low24 °F (Dec 26, 5:00 AM)75% (Dec 20, 4:00 PM)29.32 "Hg (Dec 12, 11:00 PM)
Average40 °F94%29.77 "Hg
* Reported Dec 12 11:00 PM — Dec 27 11:00 PM, Schleswig, Weather by CustomWeather, © 2014

Note: Actual official high and low records may vary slightly from our data, if they occured in-between our weather recording intervals... More about our weather records

Advertising

Schleswig weather history for previous 24 hours

 ConditionsComfort  
Time TempWeatherWind HumidityBarometerVisibility
11:00 PM
Dec 27
29 °FClear.3 mph94%30.00 "Hg6 mi
9:00 PM29 °FPassing clouds.3 mph89%29.96 "Hg6 mi
8:00 PM29 °FPassing clouds.5 mph86%29.94 "Hg11 mi
7:00 PM27 °FPassing clouds.3 mph87%29.91 "Hg9 mi
6:00 PM28 °FPassing clouds.2 mph81%29.89 "Hg12 mi
5:00 PM30 °FOvercast.3 mph75%29.88 "Hg12 mi
3:00 PM32 °FOvercast.5 mph79%29.85 "Hg9 mi
2:00 PM32 °FOvercast.5 mph83%29.84 "Hg8 mi
1:00 PM32 °FPartly sunny.5 mph90%29.85 "Hg6 mi
12:00 PM30 °FOvercast.5 mph96%29.86 "Hg6 mi
11:00 AM29 °FOvercast.3 mph96%29.87 "Hg6 mi
9:00 AM28 °FFog.3 mph99%29.89 "Hg4 mi
8:00 AM27 °FFog.5 mph100%29.89 "Hg3 mi
7:00 AM26 °FFog.3 mph100%29.91 "Hg2 mi
6:00 AM28 °FFog.3 mph100%29.93 "Hg2 mi
3:00 AM28 °FFog.5 mph100%30.03 "Hg0 mi
2:00 AM28 °FFog.6 mph100%30.05 "Hg0 mi
1:00 AM28 °FFog.5 mph100%30.08 "Hg0 mi
12:00 AM30 °FFog.5 mph100%30.11 "Hg1 mi
Weather by CustomWeather, © 2014

See weather overviewHow to use our weather pages